Daggett-Barstow, CA

11:29 PM PDT on April 27, 2017 (GMT -0700)
Barstow-Daggett

Weather History for KDAG - July, 2012

Change the Weather History Date:

Thursday, July 12, 2012

  Actual Average Record
Temperature  
Mean Temperature 94 °F 89 °F  
Max Temperature 100 °F 104 °F 114 °F (2003)
Min Temperature 87 °F 73 °F 64 °F (1997)
Degree Days  
Heating Degree Days 0    
Cooling Degree Days 30    
Growing Degree Days 44 (Base 50)    
Moisture  
Dew Point 51 °F    
Average Humidity 24    
Maximum Humidity 36    
Minimum Humidity 13    
Precipitation  
Precipitation 0.00 in 0.01 in 0.18 in (1990)
Month to date precipitation 0.11  
Year to date precipitation 2.15  
Sea Level Pressure  
Sea Level Pressure 29.78 in    
Wind  
Wind Speed 8 mph (ESE)    
Max Wind Speed 24 mph    
Max Gust Speed 29 mph    
Visibility 10 miles    
Events Rain    
T = Trace of Precipitation, MM = Missing Value Source: NWS Daily Summary

Daily Weather History Graph

Daily Weather History Graph

Search for Another Location

Airport or City:

Trip Planner

Search our weather history database for the weather conditions in past years. The results will help you decide how hot, cold, wet, or windy it might be!

Date:

Astronomy

Jul. 12, 2012 Rise Set
Actual Time 5:43 AM PDT 8:02 PM PDT
Civil Twilight 5:14 AM PDT 8:31 PM PDT
Nautical Twilight 4:38 AM PDT 9:06 PM PDT
Astronomical Twilight 3:59 AM PDT 9:45 PM PDT
Moon 12:44 AM PDT (7/12) 2:42 PM PDT (7/12)
Length of Visible Light 15h 16m
Length of Day
14h 18m
Waning Crescent, 34% of the Moon is Illuminated
Jul 12
Waning Crescent
Jul 18
New
Jul 26
First Quarter
Aug 1
Full
Aug 9
Last Quarter

Hourly Weather History & Observations

Time (PDT) Temp. Heat Index Dew Point Humidity Pressure Visibility Wind Dir Wind Speed Gust Speed Precip Events Conditions
12:50 AM 97.0 °F - 39.0 °F 13% 29.71 in 10.0 mi Calm Calm - N/A   Clear
2:50 AM 93.0 °F - 39.9 °F 16% 29.70 in 10.0 mi West 5.8 mph - N/A   Clear
3:50 AM 91.9 °F - 41.0 °F 17% 29.69 in 10.0 mi WSW 8.1 mph - N/A   Clear
4:50 AM 91.0 °F - 41.0 °F 17% 29.69 in 10.0 mi West 10.4 mph - N/A   Clear
5:50 AM 93.0 °F - 41.0 °F 16% 29.74 in 10.0 mi Calm Calm - 0.00 in Rain Light Rain
6:50 AM 93.0 °F - 46.9 °F 20% 29.76 in 10.0 mi South 11.5 mph 17.3 mph 0.00 in   Clear
7:50 AM 93.0 °F - 52.0 °F 25% 29.79 in 10.0 mi WNW 6.9 mph - N/A   Clear
8:43 AM 96.8 °F 94.4 °F 53.6 °F 23% 29.91 in 10.0 mi SSE 8.1 mph 27.6 mph N/A   Clear
8:50 AM 95.0 °F 93.0 °F 55.0 °F 26% 29.81 in 10.0 mi SE 10.4 mph 17.3 mph N/A   Clear
10:50 AM 98.1 °F 96.8 °F 57.0 °F 25% 29.80 in 10.0 mi ENE 16.1 mph - N/A   Clear
10:56 AM 96.8 °F 95.8 °F 57.2 °F 27% 29.90 in 10.0 mi East 21.9 mph 27.6 mph N/A   Clear
11:50 AM 98.1 °F - 52.0 °F 21% 29.79 in 10.0 mi South 11.5 mph - N/A   Scattered Clouds
12:21 PM 96.8 °F 95.1 °F 55.4 °F 25% 29.90 in 10.0 mi East 8.1 mph - N/A   Clear
12:50 PM 93.0 °F 92.0 °F 57.9 °F 31% 29.79 in 10.0 mi ENE 10.4 mph - N/A   Partly Cloudy
1:50 PM 100.0 °F - 50.0 °F 18% 29.78 in 10.0 mi SSE 20.7 mph 25.3 mph N/A   Clear
2:04 PM 98.6 °F - 50.0 °F 19% 29.86 in 10.0 mi SSE 24.2 mph 28.8 mph N/A   Clear
2:50 PM 98.1 °F - 48.0 °F 18% 29.77 in 10.0 mi SSE 12.7 mph 23.0 mph N/A   Clear
3:50 PM 93.9 °F 92.6 °F 57.0 °F 29% 29.77 in 10.0 mi East 15.0 mph 24.2 mph N/A   Scattered Clouds
3:57 PM 93.2 °F 91.9 °F 57.2 °F 30% 29.85 in 10.0 mi East 11.5 mph - N/A   Partly Cloudy
4:50 PM 95.0 °F 93.7 °F 57.0 °F 28% 29.75 in 10.0 mi Variable 4.6 mph - N/A   Clear
5:50 PM 96.1 °F - 52.0 °F 22% 29.73 in 10.0 mi Calm Calm - N/A   Clear
6:50 PM 95.0 °F - 52.0 °F 23% 29.74 in 10.0 mi NE 3.5 mph - N/A   Clear
7:50 PM 93.9 °F - 52.0 °F 24% 29.74 in 10.0 mi WNW 3.5 mph - N/A   Clear
8:50 PM 91.0 °F 88.5 °F 53.1 °F 27% 29.76 in 10.0 mi ESE 3.5 mph - N/A   Clear
9:50 PM 90.0 °F 88.1 °F 55.9 °F 31% 29.78 in 10.0 mi NE 6.9 mph - N/A   Scattered Clouds
10:50 PM 89.1 °F 87.3 °F 55.9 °F 32% 29.78 in 10.0 mi East 5.8 mph - N/A   Clear
11:50 PM 87.1 °F 85.9 °F 57.0 °F 36% 29.78 in 10.0 mi NE 5.8 mph - N/A   Clear